Weather History for KIXD - February, 2014

Change the Weather History Date:

Saturday, February 15, 2014

  Actual Average Record
Temperature  
Mean Temperature 26 °F -  
Max Temperature 39 °F 43 °F 66 °F (2000)
Min Temperature 12 °F 26 °F 0 °F (2007)
Degree Days  
Heating Degree Days 40    
Moisture  
Dew Point 22 °F    
Average Humidity 75    
Maximum Humidity 92    
Minimum Humidity 62    
Precipitation  
Precipitation 0.00 in - - ()
Sea Level Pressure  
Sea Level Pressure 30.04 in    
Wind  
Wind Speed 6 mph (SSW)    
Max Wind Speed 18 mph    
Max Gust Speed 25 mph    
Visibility 8 miles    
Events      
Averages and records for this station are not official NWS values.
T = Trace of Precipitation, MM = Missing Value Source: NWS Daily Summary

Daily Weather History Graph

Daily Weather History Graph

Search for Another Location

Airport or City:

Trip Planner

Search our weather history database for the weather conditions in past years. The results will help you decide how hot, cold, wet, or windy it might be!

Date:

Astronomy

Feb. 15, 2014 Rise Set
Actual Time 7:10 AM CST 5:57 PM CST
Civil Twilight 6:43 AM CST 6:24 PM CST
Nautical Twilight 6:12 AM CST 6:55 PM CST
Astronomical Twilight 5:41 AM CST 7:26 PM CST
Moon 6:56 PM CST (2/15) 7:10 AM CST (2/15)
Length of Visible Light 11h 41m
Length of Day
10h 46m
Waxing Gibbous, 99% of the Moon is Illuminated
Feb 15
Waxing Gibbous
Feb 22
Last Quarter
Mar 1
New
Mar 8
First Quarter
Mar 16
Full

Hourly Weather History & Observations

Time (CST) Temp. Windchill Dew Point Humidity Pressure Visibility Wind Dir Wind Speed Gust Speed Precip Events Conditions
12:53 AM 14.0 °F - 10.0 °F 84% 30.14 in 4.0 mi Calm Calm - 0.00 in   Clear
1:53 AM 12.9 °F 6.9 °F 10.9 °F 92% 30.13 in 4.0 mi SSW 3.5 mph - N/A   Clear
2:53 AM 14.0 °F 6.5 °F 10.9 °F 88% 30.13 in 4.0 mi SE 4.6 mph - 0.00 in   Clear
3:53 AM 16.0 °F 10.4 °F 14.0 °F 92% 30.14 in 4.0 mi SSW 3.5 mph - 0.00 in   Clear
4:53 AM 18.0 °F 8.7 °F 15.1 °F 88% 30.10 in 4.0 mi SE 6.9 mph - N/A   Scattered Clouds
5:53 AM 19.0 °F 10.0 °F 15.1 °F 85% 30.08 in 5.0 mi SSE 6.9 mph - N/A   Overcast
6:53 AM 19.9 °F 9.3 °F 17.1 °F 89% 30.07 in 5.0 mi SSE 9.2 mph - N/A   Overcast
7:53 AM 21.9 °F 9.8 °F 18.0 °F 85% 30.07 in 4.0 mi South 12.7 mph - N/A   Overcast
8:53 AM 25.0 °F 11.3 °F 18.0 °F 75% 30.04 in 8.0 mi South 18.4 mph 25.3 mph N/A   Overcast
9:53 AM 26.1 °F 14.5 °F 18.0 °F 71% 30.02 in 10.0 mi SSE 13.8 mph - N/A   Overcast
10:53 AM 28.0 °F 17.5 °F 19.9 °F 72% 30.00 in 10.0 mi SSE 12.7 mph - N/A   Overcast
11:53 AM 30.9 °F 21.7 °F 21.9 °F 69% 29.97 in 10.0 mi SE 11.5 mph - N/A   Overcast
12:53 PM 33.1 °F 25.5 °F 24.1 °F 70% 29.96 in 10.0 mi South 9.2 mph - N/A   Overcast
1:53 PM 36.0 °F 29.6 °F 25.0 °F 64% 29.95 in 10.0 mi SSW 8.1 mph - N/A   Overcast
2:53 PM 39.0 °F 34.0 °F 27.0 °F 62% 29.94 in 10.0 mi SSW 6.9 mph - N/A   Scattered Clouds
3:53 PM 39.9 °F 34.5 °F 28.0 °F 63% 29.94 in 10.0 mi West 8.1 mph - N/A   Clear
4:53 PM 39.9 °F 34.5 °F 28.0 °F 63% 29.95 in 10.0 mi SW 8.1 mph - N/A   Clear
5:53 PM 37.0 °F 33.3 °F 28.0 °F 70% 29.99 in 10.0 mi South 4.6 mph - N/A   Clear
6:53 PM 35.1 °F 30.1 °F 27.0 °F 72% 30.00 in 10.0 mi SSW 5.8 mph - N/A   Clear
7:53 PM 35.1 °F 28.6 °F 28.0 °F 76% 30.00 in 10.0 mi SW 8.1 mph - N/A   Clear
8:53 PM 37.0 °F 31.0 °F 28.9 °F 73% 30.02 in 10.0 mi WSW 8.1 mph - N/A   Clear
9:53 PM 39.9 °F 33.9 °F 28.9 °F 65% 30.05 in 10.0 mi WNW 9.2 mph - N/A   Clear
10:53 PM 37.0 °F 29.8 °F 28.0 °F 70% 30.07 in 10.0 mi NNW 10.4 mph - N/A   Clear
11:53 PM 37.0 °F 33.3 °F 27.0 °F 67% 30.09 in 10.0 mi WNW 4.6 mph - N/A   Clear